Terminal Aerodrome Forecast
Issued by NWS

Home | Current Version | Previous Version | Text Only | Print | Product List | Glossary On
Versions: 1 2 3 4 5 6 7 8 9 10 11 12
000
FTUS44 KOUN 241207 RRA
TAFPNC
TAF
KPNC 241207Z 2412/2512 33013G23KT P6SM OVC023
     FM241630 33016G26KT P6SM SCT050
     FM250000 35012KT P6SM SCT150=

USA.gov is the U.S. government's official web portal to all federal, state and local government web resources and services.